AirNav   Air Wisconsin pilot careers
 
 358 users online  

E68 Estrella Sailport
Maricopa, Arizona, USA

GOING TO MARICOPA?


FAA INFORMATION EFFECTIVE 19 JULY 2018

Location

FAA Identifier: E68
Lat/Long: 33-05-07.1760N / 112-09-39.5260W
33-05.119600N / 112-09.658767W
33.0853267 / -112.1609794
(estimated)
Elevation: 1273 ft. / 388 m (estimated)
Variation: 13E (1985)
From city: 6 miles W of MARICOPA, AZ
Time zone: UTC -7 (year round; does not observe DST)
Zip code: 85239

Gliderport Operations

Gliderport use: Open to the public
Activation date: 03/1969
Control tower: no
ARTCC: ALBUQUERQUE CENTER
FSS: PRESCOTT FLIGHT SERVICE STATION
NOTAMs facility: PRC (NOTAM-D service available)
Attendance: MON-FRI 1100-DUSK, ALL SAT-SUN 0900-DUSK
Wind indicator: yes
Segmented circle: yes

Gliderport Communications

CTAF: 122.9
WX AWOS-3 at A39 (13 nm SE): 126.900 (520-568-7704)

Nearby radio navigation aids

VOR radial/distance  VOR name  Freq  Var
TFDr301/17.4STANFIELD VORTAC114.8012E
PXRr193/23.0PHOENIX VORTAC115.6012E
GBNr059/27.0GILA BEND VORTAC116.6014E
IWAr230/28.7WILLIE VORTAC113.3013E
BXKr110/40.0BUCKEYE VORTAC110.6014E

 
NDB name  Hdg/Dist  Freq  Var  ID
CHANDLER226/20.840712ECHD -.-. .... -..

Gliderport Services

Oil available: FREQ 123.3 AVBL FOR COMM BTN GLIDER AND TOW ACFT.
Parking: tiedowns
Airframe service: NONE
Powerplant service: NONE
Bottled oxygen: NONE
Bulk oxygen: NONE

Runway Information

Runway 6R/24L

Dimensions: 2520 x 30 ft. / 768 x 9 m
Surface: asphalt, in fair condition
RUNWAY 6R  RUNWAY 24L
Latitude: 33-05.049333N33-05.163833N
Longitude: 112-09.927667W112-09.453000W
Gradient: 0.4%0.4%
Traffic pattern: rightleft
Runway end identifier lights: nono

Runway 7/25

Dimensions: 3740 x 20 ft. / 1140 x 6 m
Surface: dirt, in fair condition
RUNWAY 7  RUNWAY 25
Traffic pattern: leftleft
Obstructions: 10 ft. brush, 256 ft. from runway, 70 ft. right of centerline, 25:1 slope to clear6 ft. brush, 105 ft. from runway, 55 ft. left of centerline, 17:1 slope to clear

Runway 6C/24C

Dimensions: 1995 x 25 ft. / 608 x 8 m
Surface: dirt, in fair condition
RUNWAY 6C  RUNWAY 24C
Gradient: 0.4%0.4%
Traffic pattern: rightleft
Markings: nonenone
Runway end identifier lights: nono
Obstructions: 8 ft. brush, 15 ft. from runway, 92 ft. right of centerline, 1:1 slope to clear23 ft. brush, 100 ft. from runway, 75 ft. right of centerline, 4:1 slope to clear

Runway 6L/24R

Dimensions: 1910 x 25 ft. / 582 x 8 m
Surface: dirt, in fair condition
RUNWAY 6L  RUNWAY 24R
Gradient: 0.4%0.4%
Traffic pattern: rightleft
Markings: nonenone
Runway end identifier lights: nono
Obstructions: 10 ft. tree, 90 ft. from runway, 30 ft. right of centerline, 9:1 slope to clearnone

Gliderport Ownership and Management from official FAA records

Ownership: Privately-owned
Owner: ARIZONA SOARING INC
PO BOX 858
MARICOPA, AZ 85139
Phone 520-568-2318
Manager: JASON STEPHENS
PO BOX 858
MARICOPA, AZ 85239
Phone 520-568-2318

Gliderport Operational Statistics

Aircraft based on the field: 50
Single engine airplanes: 2
Gliders airplanes: 48
    
Aircraft operations: avg 59/day *
100% local general aviation
* for 12-month period ending 21 April 2018

Additional Remarks

A58-06R RWY 07 IS IN PRIMARY SURFACE AT 85 FEET LEFT OF CENTERLINE FOR THE ENTIRE LENGTH. 4 FOOT BRUSH 117 FEET LEFT AND 0 FEET FROM EOR.
A58-24L RWY 25 IS IN PRIMARY SURFACE 85 FEET RIGHT OF CENTERLINE. 5 FOOT BRUSH 40 FEET LEFT AND 0 FEET FROM EOR.
OBSTRNS MTNS SW, NW & N. 1' BERM & -1' DITCH N OF RWY 06L/24R.
AIRPORT CLOSED AT NIGHT.
POWER ACFT PAT IS SOUTH OF RWYS; GLIDER PAT IS NORTH OF RWYS.
POWERED ACFT ARE REQD TO USE RWY NOT IN USE BY GLIDERS.
AN AEROBATIC BOX IS ACTIVE FM 0900-1800; ONE SQUARE MILE AROUND THE PXR194023.
HEAVY NO-RADIO ACTIVITY.
PAVED RY FOR TKOFF ONLY.
POWERED ACFT BE ALERT FOR HEAVY GLIDER TFC OPER WITHOUT COMM WITHIN 5 NM OF ESTRELLA SAILPORT.
ALL ACFT PPR DUE TO HEAVY GLIDER ACTIVITY CTC 520-568-2318.

Instrument Procedures

There are no published instrument procedures at E68.

Some nearby airports with instrument procedures:

P19 - Stellar Airpark (18 nm NE)
KCHD - Chandler Municipal Airport (21 nm NE)
KCGZ - Casa Grande Municipal Airport (21 nm E)
KPHX - Phoenix Sky Harbor International Airport (22 nm N)
KGYR - Phoenix Goodyear Airport (23 nm NW)
 
Loc | Ops | Rwys | IFR | FBO | Links
Com | Nav | Svcs | Stats | Notes


 
Area around E68 (Estrella Sailport)
 
Road maps at: MapQuest Bing Google
 
Aerial photo
WARNING: Photo may not be current or correct
Aerial photo of E68 (Estrella Sailport)
Do you have a better or more recent aerial photo of Estrella Sailport that you would like to share? If so, please send us your photo.

 
Sectional chart

 
Airport distance calculator
Flying to Estrella Sailport? Find the distance to fly.

From to E68

Sunrise and sunset
Times for 19-Jul-2018
 Local
(UTC-7)
 Zulu
(UTC)
Morning civil twilight05:0612:06
Sunrise05:3412:34
Sunset19:3602:36
Evening civil twilight20:0303:03

Current date and time
Zulu (UTC)  19-Jul-2018 09:56:51
Local (UTC-7)  19-Jul-2018 02:56:51
 
METAR
KA39 
13nm SE 
190935Z AUTO 28009KT 10SM SCT120 30/20 A2998 RMK AO2
KCHD 
20nm NE 
190347Z 22005KT 10SM SCT120 BKN220 36/18 A2990 RMK LAST
KCGZ 
21nm E 
190856Z AUTO 27010KT 10SM CLR 31/21 A2995 RMK AO2 SLP123 6//// T03110206 58004 $
KPHX 
22nm N 
190851Z 28012KT 10SM FEW250 33/21 A2990 RMK AO2 SLP104 T03330206 58003
KGYR 
22nm NW 
190347Z 22011KT 10SM FEW070 SCT180 BKN250 35/21 A2989 RMK LAST
TAF
KPHX 
22nm N 
190520Z 1906/2012 27010KT P6SM FEW090 SCT140 BKN250 FM190900 29005KT P6SM SCT120 BKN250 FM191900 27011G18KT P6SM FEW080 SCT150 SCT250 FM200300 06011KT P6SM FEW080 SCT150 BKN250 FM200600 09004KT P6SM FEW090 SCT150 BKN250
NOTAMs
Click for the latest NOTAMs
NOTAMs are issued by the DoD/FAA and will open in a separate window not controlled by AirNav.

 

 
 

Aviation Businesses, Services, and Facilities

  
 Business Name 
 
 Contact 
 
 Services / Description 
 
Distance
 
Comments
  
Arizona Soaring 520-568-2318
no information available

If you are affiliated with Arizona Soaring and would like to show here your services, contact info, web link, logo, and more, click here
on airport  
   1 read write
 

Would you like to see your business listed on this page?

 If your business provides an interesting product or service to pilots, flight crews, aircraft, or users of the Estrella Sailport, you should consider listing it here.  To start the listing process, click on the button below
 
Add a business
 

Other Pages about Estrella Sailport

Update a link
 
Copyright © AirNav, LLC. All rights reserved. Privacy Policy  Contact